Regional Weather Roundup
Issued by NWS Upton, NY

Current Version | Previous Version | Graphics & Text | Print | Product List | Glossary Off
Versions: 1 2 3 4 5 6 7 8 9 10 11 12 13 14 15 16 17 18 19 20 21 22 23 24 25 26 27 28 29 30 31 32 33 34 35 36 37 38 39 40 41 42 43 44 45 46 47 48 49 50

000
ASUS41 KOKX 291508
RWROKX

REGIONAL WEATHER ROUNDUP
NATIONAL WEATHER SERVICE NEW YORK NY
1100 AM EDT FRI MAY 29 2015

NOTE: "FAIR" INDICATES FEW OR NO CLOUDS BELOW 12,000 FEET WITH NO
SIGNIFICANT WEATHER AND/OR OBSTRUCTIONS TO VISIBILITY.

NYZ071-072-176-178-NJZ106-104-291600-
NEW YORK CITY METRO AREA


CITY           SKY/WX    TMP DP  RH WIND       PRES   REMARKS
CENTRAL PARK   SUNNY     74  54  49 E5        30.32F
LAGUARDIA APRT MOSUNNY   74  55  51 NE9       30.29F
KENNEDY INTL   MOSUNNY   78  53  41 CALM      30.30S
NEWARK/LIBERTY MOSUNNY   76  54  46 SE5       30.29F
BRNX BOT. GARD   N/A     73  55  53 NE12      30.32S
TETERBORO      SUNNY     77  54  44 CALM      30.28F
$$

NYZ177-179-078>081-291600-
LONG ISLAND NEW YORK

CITY           SKY/WX    TMP DP  RH WIND       PRES   REMARKS
FARMINGDALE    SUNNY     75  57  53 E6        30.29S
ISLIP          MOSUNNY   75  56  51 CALM      30.28R
SHIRLEY        SUNNY     76  56  49 CALM      30.29S
WESTHAMPTON    SUNNY     75  57  53 VRB3      30.30S
MONTAUK POINT    N/A     72  57  59 NE6       30.31R
$$

NYZ052-065-067-291600-
HUDSON VALLEY

CITY           SKY/WX    TMP DP  RH WIND       PRES   REMARKS
WHITE PLAINS   MOSUNNY   74  55  51 SW3       30.29F
NEWBURGH       SUNNY     72  59  64 VRB5      30.31F
MONTGOMERY     SUNNY     74  60  61 N7        30.30F
POUGHKEEPSIE   SUNNY     76  58  53 N5        30.29F
ALBANY         MOSUNNY   74  55  51 CALM      30.30F
$$

NJZ001-105-106-008-010-013-015-019>022-104-291600-
NEW JERSEY

CITY           SKY/WX    TMP DP  RH WIND       PRES   REMARKS
NEWARK/LIBERTY MOSUNNY   76  54  46 SE5       30.29F
TETERBORO      SUNNY     77  54  44 CALM      30.28F
CALDWELL       SUNNY     76  54  46 CALM      30.30F
MORRISTOWN     SUNNY     77  54  44 NE3       30.30F
SOMERVILLE     SUNNY     78  58  49 VRB3      30.28S
SUSSEX         SUNNY     73  57  57 CALM      30.32F
ANDOVER          N/A     74  57  55 CALM      30.31S
TRENTON        SUNNY     76  57  51 VRB3      30.29S
MILLVILLE      MOSUNNY   78  60  53 VRB7      30.28S
ATLANTIC CITY  SUNNY     76  57  51 E9        30.29S
WRIGHTSTOWN    SUNNY     77  59  53 VRB1      30.26F
TOMS RIVER     SUNNY    N/A N/A N/A E7        30.29F
BELMAR         SUNNY     73  54  49 E7        30.30F
$$

PAZ047>061-062-071-291600-
EASTERN PENNSYLVANIA

CITY           SKY/WX    TMP DP  RH WIND       PRES   REMARKS
PHILADELPHIA   MOSUNNY   78  57  48 E9        30.29S
ALLENTOWN      SUNNY     78  55  44 NE7       30.29F
SCRANTON       SUNNY     75  55  49 NW5       30.29F
$$

CTZ002-004>006-009-010-012-RIZ004-006-007-MAZ004-011-015-291600-
SOUTHERN NEW ENGLAND
 IN CT

CITY           SKY/WX    TMP DP  RH WIND       PRES   REMARKS
BRADLEY INTL   MOSUNNY   74  58  57 NE5       30.29F
HARTFORD       SUNNY     74  59  59 VRB5      30.29F
DANBURY        SUNNY     73  56  54 CALM      30.31F
WTRBRY/OXFORD  SUNNY     72  57  60 NE5       30.32
BRIDGEPORT     SUNNY     72  58  61 SE8       30.29F
MERIDEN        SUNNY     76  56  49 MISG      30.29F
NEW HAVEN      MOSUNNY   74  57  55 S8        30.29S
CHESTER        FAIR      73  57  56 N5        30.31S
GROTON         SUNNY     72  59  63 S8        30.28S
WILLIMANTIC    SUNNY     77  57  50 N7        30.29F

 IN RI

CITY           SKY/WX    TMP DP  RH WIND       PRES   REMARKS
PROVIDENCE     MOSUNNY   76  57  51 MISG      30.29S
BLOCK ISLAND   SUNNY     68  57  68 NE7       30.31S
WESTERLY       SUNNY     73  58  59 SE9       30.29S

 IN MA

CITY           SKY/WX    TMP DP  RH WIND       PRES   REMARKS
BOSTON         PTSUNNY   69  58  67 E16       30.31R
WORCESTER      MOSUNNY   71  56  58 VRB3      30.32S
WESTFIELD      MOSUNNY   74  56  53 CALM      30.29F
PROVINCETOWN   SUNNY     63  54  72 N7        30.31S
NANTUCKET      SUNNY     74  59  59 VRB6      30.29R
$$

ANZ330-335-338-340-345-350-353-355-291600-
COASTAL MARINE OBSERVATIONS


STATION/POSITION TIME  SKY/WX   TEMP    WIND        PRES    VSBY  WAVE
                                AIR SEA DIR/SP/G                  HT/PER
                 (UTC)          (F)     (DEG/KT/KT) (MB)    (MI)  (FT/S)
NY HARB ENTRANCE 1450            64 59   70/  2/  4 1025.8          2/ 9
4S FIRE IS       1403               58                N/A           2/ 8
20S FIRE ISLAND  1450            60 58   20/  6/  6 1025.6          2/ 8
GREAT SOUTH BAY  1415            70 68  100/  4/  6   N/A
23SW MTP         1450            57 55   20/  8/  8 1025.4          3/ 8
HUDSON CANYON    NOT AVBL
KINGS POINT      1400            70 54   20/  6/  8 1025.4
CENTRAL LI SOUND 1430            65 58  190/  2/  4   N/A
EASTERN LI SOUND 1400            66     260/  2/  4   N/A
ROBBINS REEF     1400            70      40/  7/  8 1024.9
$$


>>>>>>>>>>>>>>>>>>>>>>>>>>>> KEY <<<<<<<<<<<<<<<<<<<<<<<<<<<
>                                                          <
>     SKY/WX - SKY CONDITION/PRESENT WEATHER               <
>     TMP    - TEMPERATURE IN FAHRENHEIT                   <
>     DP     - DEWPOINT IN FAHRENHEIT                      <
>     RH     - RELATIVE HUMIDITY IN PERCENT                <
>     WIND   - DIRECTION AND SPEED IN MPH                  <
>     PRES   - MEAN SEA LEVEL PRESSURE IN INCHES OF HG     <
>     WCI    - WIND CHILL INDEX                            <
>     VSB    - VISIBILITY IN MILES                         <
>     HX     - HEAT INDEX                                  <
>     TC     - TEMPERATURE IN CELSIUS                      <
>     VRB    - VARIABLE WIND DIRECTION                     <
>                                                          <
>>>>>>>>>>>>>>>>>>>>>>>>>>>> KEY <<<<<<<<<<<<<<<<<<<<<<<<<<<





USA.gov is the U.S. government's official web portal to all federal, state and local government web resources and services.